^^
Station Historical Data
Daily Summary for August 24, 2021 Units:  English    Metric   Both
Daily Weekly Monthly Yearly
  High: Low: Average:
Temperature: 86.6 °F 73 °F 78.3 °F
Dew Point: 76.7 °F 67.6 °F 70.8 °F
Humidity: 91% 65% 78%
Wind Speed: 9mph 0mph 2mph
Wind Gust: 9mph - -
Wind- - SSW
Pressure: 29.97 in 29.86 in -
Precipitation: 0.01 in    
 
 
Tabular Data for August 24, 2021
Time Temperature Dew Point Pressure Wind Wind Speed Wind Gust Humidity Rainfall Rate (Hourly) solar
00:00 78.4 °F 71 °F 29.89 in West 4 mph 6 mph 78% 0.00 in 0 W/m2
00:05 78.3 °F 70.5 °F 29.89 in SSW 4 mph 6 mph 77% 0.00 in 0 W/m2
00:10 78.2 °F 70.4 °F 29.89 in West 4 mph 4 mph 77% 0.00 in 0 W/m2
00:15 78.2 °F 70 °F 29.89 in WSW 3 mph 6 mph 76% 0.00 in 0 W/m2
00:20 78.1 °F 70.3 °F 29.89 in WSW 3 mph 3 mph 77% 0.00 in 0 W/m2
00:25 78.1 °F 70.7 °F 29.89 in WNW 3 mph 3 mph 78% 0.00 in 0 W/m2
00:30 78 °F 70.6 °F 29.89 in SW 3 mph 3 mph 78% 0.00 in 0 W/m2
00:35 77.9 °F 70.5 °F 29.89 in West 3 mph 6 mph 78% 0.00 in 0 W/m2
00:40 77.9 °F 70.1 °F 29.89 in SW 3 mph 3 mph 77% 0.00 in 0 W/m2
00:45 77.8 °F 69.6 °F 29.89 in East 2 mph 3 mph 76% 0.00 in 0 W/m2
00:50 77.7 °F 69.5 °F 29.89 in WNW 2 mph 4 mph 76% 0.00 in 0 W/m2
00:55 77.6 °F 69.4 °F 29.89 in SW 2 mph 4 mph 76% 0.00 in 0 W/m2
01:00 77.6 °F 69.4 °F 29.89 in WSW 2 mph 5 mph 76% 0.00 in 0 W/m2
01:05 77.5 °F 69.3 °F 29.89 in WNW 2 mph 5 mph 76% 0.00 in 0 W/m2
01:10 77.4 °F 69.2 °F 29.89 in NE 2 mph 2 mph 76% 0.00 in 0 W/m2
01:15 77.3 °F 69.1 °F 29.89 in WSW 2 mph 2 mph 76% 0.00 in 0 W/m2
01:20 77.2 °F 69 °F 29.89 in West 2 mph 3 mph 76% 0.00 in 0 W/m2
01:25 77.1 °F 69.3 °F 29.89 in West 2 mph 4 mph 77% 0.00 in 0 W/m2
01:30 77 °F 69.2 °F 29.89 in WSW 3 mph 3 mph 77% 0.00 in 0 W/m2
01:35 76.9 °F 69.1 °F 29.89 in West 2 mph 3 mph 77% 0.00 in 0 W/m2
01:40 76.9 °F 69.5 °F 29.89 in NE 2 mph 2 mph 78% 0.00 in 0 W/m2
01:45 76.9 °F 69.5 °F 29.89 in WSW 2 mph 2 mph 78% 0.00 in 0 W/m2
01:50 76.7 °F 69.3 °F 29.89 in WSW 2 mph 2 mph 78% 0.00 in 0 W/m2
01:55 76.7 °F 69.3 °F 29.89 in West 2 mph 2 mph 78% 0.00 in 0 W/m2
02:00 76.6 °F 69.2 °F 29.89 in WNW 3 mph 3 mph 78% 0.00 in 0 W/m2
02:05 76.6 °F 69.2 °F 29.89 in West 2 mph 3 mph 78% 0.00 in 0 W/m2
02:10 76.5 °F 69.1 °F 29.89 in NW 2 mph 2 mph 78% 0.00 in 0 W/m2
02:15 76.4 °F 69 °F 29.89 in West 2 mph 3 mph 78% 0.00 in 0 W/m2
02:20 76.3 °F 68.6 °F 29.89 in South 2 mph 2 mph 77% 0.00 in 0 W/m2
02:25 76.2 °F 68.5 °F 29.89 in West 2 mph 5 mph 77% 0.00 in 0 W/m2
02:30 76.1 °F 68.4 °F 29.90 in West 3 mph 3 mph 77% 0.00 in 0 W/m2
02:35 76.1 °F 68.4 °F 29.89 in SW 3 mph 3 mph 77% 0.00 in 0 W/m2
02:40 76 °F 68.6 °F 29.89 in West 2 mph 2 mph 78% 0.00 in 0 W/m2
02:45 75.9 °F 68.2 °F 29.89 in West 2 mph 2 mph 77% 0.00 in 0 W/m2
02:50 75.9 °F 68.2 °F 29.89 in NE 2 mph 2 mph 77% 0.00 in 0 W/m2
02:55 75.8 °F 68.4 °F 29.89 in SSW 2 mph 2 mph 78% 0.00 in 0 W/m2
03:00 75.7 °F 68.4 °F 29.89 in NW 2 mph 2 mph 78% 0.00 in 0 W/m2
03:05 75.7 °F 68.4 °F 29.89 in SW 2 mph 2 mph 78% 0.00 in 0 W/m2
03:10 75.6 °F 68.6 °F 29.89 in SSW 1 mph 1 mph 79% 0.00 in 0 W/m2
03:15 75.5 °F 68.5 °F 29.90 in WSW 2 mph 4 mph 79% 0.00 in 0 W/m2
03:20 75.4 °F 68.4 °F 29.90 in SSW 2 mph 2 mph 79% 0.00 in 0 W/m2
03:25 75.3 °F 68.3 °F 29.90 in East 2 mph 2 mph 79% 0.00 in 0 W/m2
03:30 75.2 °F 68.2 °F 29.89 in South 2 mph 2 mph 79% 0.00 in 0 W/m2
03:35 75.1 °F 68.1 °F 29.90 in SW 2 mph 5 mph 79% 0.00 in 0 W/m2
03:40 75.1 °F 68.1 °F 29.89 in NW 2 mph 2 mph 79% 0.00 in 0 W/m2
03:45 75 °F 68.4 °F 29.90 in West 2 mph 2 mph 80% 0.00 in 0 W/m2
03:50 74.9 °F 68.3 °F 29.90 in NNW 2 mph 2 mph 80% 0.00 in 0 W/m2
03:55 74.9 °F 68.3 °F 29.90 in WNW 2 mph 4 mph 80% 0.00 in 0 W/m2
04:00 74.8 °F 68.2 °F 29.90 in NW 2 mph 2 mph 80% 0.00 in 0 W/m2
04:05 74.8 °F 68.6 °F 29.90 in WNW 2 mph 2 mph 81% 0.00 in 0 W/m2
04:10 74.7 °F 68.5 °F 29.90 in West 2 mph 6 mph 81% 0.00 in 0 W/m2
04:15 74.6 °F 68.4 °F 29.90 in NE 2 mph 6 mph 81% 0.00 in 0 W/m2
04:20 74.6 °F 68.4 °F 29.90 in West 2 mph 3 mph 81% 0.00 in 0 W/m2
04:25 74.6 °F 68.7 °F 29.90 in WSW 2 mph 3 mph 82% 0.00 in 0 W/m2
04:30 74.5 °F 68.6 °F 29.90 in WNW 2 mph 3 mph 82% 0.00 in 0 W/m2
04:35 74.4 °F 68.5 °F 29.90 in SSW 2 mph 4 mph 82% 0.00 in 0 W/m2
04:40 74.4 °F 68.5 °F 29.90 in West 2 mph 2 mph 82% 0.00 in 0 W/m2
04:45 74.3 °F 68.4 °F 29.90 in NW 2 mph 2 mph 82% 0.00 in 0 W/m2
04:50 74.2 °F 68.3 °F 29.90 in WSW 2 mph 2 mph 82% 0.00 in 0 W/m2
04:55 74.3 °F 68.4 °F 29.90 in SW 2 mph 2 mph 82% 0.00 in 0 W/m2
05:00 74.2 °F 68.3 °F 29.90 in NNW 1 mph 1 mph 82% 0.00 in 0 W/m2
05:05 74.2 °F 68.3 °F 29.90 in West 2 mph 7 mph 82% 0.00 in 0 W/m2
05:10 74.1 °F 68.3 °F 29.90 in NW 3 mph 3 mph 82% 0.00 in 0 W/m2
05:15 74.1 °F 68.3 °F 29.90 in SW 2 mph 3 mph 82% 0.00 in 0 W/m2
05:20 74 °F 68.2 °F 29.90 in NNW 2 mph 2 mph 82% 0.00 in 0 W/m2
05:25 74 °F 68.2 °F 29.91 in WSW 2 mph 2 mph 82% 0.00 in 0 W/m2
05:30 74 °F 68.2 °F 29.90 in West 2 mph 3 mph 82% 0.00 in 0 W/m2
05:35 74 °F 68.2 °F 29.90 in West 2 mph 3 mph 82% 0.00 in 0 W/m2
05:40 73.9 °F 68.1 °F 29.91 in WSW 1 mph 2 mph 82% 0.00 in 0 W/m2
05:45 73.9 °F 68.1 °F 29.91 in WNW 1 mph 2 mph 82% 0.00 in 0 W/m2
05:50 73.9 °F 68.1 °F 29.91 in WSW 2 mph 3 mph 82% 0.00 in 0 W/m2
05:55 73.9 °F 68.1 °F 29.91 in WSW 2 mph 3 mph 82% 0.00 in 0 W/m2
06:00 73.9 °F 68.1 °F 29.90 in WSW 2 mph 2 mph 82% 0.00 in 0 W/m2
06:05 73.9 °F 67.7 °F 29.90 in SW 2 mph 2 mph 81% 0.00 in 0 W/m2
06:10 73.8 °F 67.6 °F 29.90 in South 2 mph 2 mph 81% 0.00 in 0 W/m2
06:15 73.8 °F 68 °F 29.90 in WSW 1 mph 2 mph 82% 0.00 in 0 W/m2
06:20 73.9 °F 68.1 °F 29.90 in SSW 2 mph 2 mph 82% 0.00 in 0 W/m2
06:25 74 °F 68.5 °F 29.90 in South 2 mph 2 mph 83% 0.00 in 0 W/m2
06:30 74.1 °F 69 °F 29.91 in SW 2 mph 2 mph 84% 0.00 in 0 W/m2
06:35 74.2 °F 69.1 °F 29.91 in SSE 2 mph 3 mph 84% 0.00 in 0 W/m2
06:40 74.2 °F 68.7 °F 29.91 in South 2 mph 2 mph 83% 0.00 in 0 W/m2
06:45 74.2 °F 68.7 °F 29.91 in WSW 1 mph 2 mph 83% 0.00 in 5 W/m2
06:50 74.4 °F 69.2 °F 29.91 in SSW 1 mph 1 mph 84% 0.00 in 5 W/m2
06:55 74.5 °F 69 °F 29.91 in SSW 1 mph 2 mph 83% 0.00 in 7 W/m2
07:00 74.6 °F 69.4 °F 29.91 in SSW 1 mph 2 mph 84% 0.00 in 11 W/m2
07:05 74.9 °F 70.4 °F 29.91 in ENE 1 mph 2 mph 86% 0.00 in 14 W/m2
07:10 74.9 °F 70.8 °F 29.91 in NNE 1 mph 2 mph 87% 0.00 in 16 W/m2
07:15 74.6 °F 70.8 °F 29.91 in ENE 1 mph 2 mph 88% 0.00 in 19 W/m2
07:20 74.3 °F 70.5 °F 29.92 in ESE 1 mph 1 mph 88% 0.00 in 23 W/m2
07:25 74 °F 70.6 °F 29.92 in NE 1 mph 1 mph 89% 0.00 in 26 W/m2
07:30 73.6 °F 70.2 °F 29.92 in NE 1 mph 1 mph 89% 0.00 in 30 W/m2
07:35 73.3 °F 69.9 °F 29.92 in WSW 1 mph 1 mph 89% 0.00 in 32 W/m2
07:40 73 °F 69.9 °F 29.92 in North 1 mph 1 mph 90% 0.00 in 35 W/m2
07:45 73 °F 69.9 °F 29.92 in ENE 1 mph 1 mph 90% 0.00 in 37 W/m2
07:50 73.1 °F 70 °F 29.92 in NE 1 mph 1 mph 90% 0.00 in 39 W/m2
07:55 73.2 °F 70.4 °F 29.92 in East 1 mph 1 mph 91% 0.00 in 40 W/m2
08:00 73.2 °F 70.4 °F 29.92 in ESE 1 mph 1 mph 91% 0.00 in 54 W/m2
08:05 73.3 °F 70.5 °F 29.92 in South 1 mph 1 mph 91% 0.00 in 46 W/m2
08:10 73.4 °F 70.6 °F 29.92 in WNW 1 mph 1 mph 91% 0.00 in 46 W/m2
08:15 73.6 °F 70.8 °F 29.92 in West 1 mph 3 mph 91% 0.00 in 47 W/m2
08:20 73.4 °F 70 °F 29.92 in SW 2 mph 2 mph 89% 0.00 in 53 W/m2
08:25 73.5 °F 70.1 °F 29.92 in SSE 2 mph 2 mph 89% 0.00 in 193 W/m2
08:30 73.6 °F 69.8 °F 29.92 in West 2 mph 3 mph 88% 0.00 in 200 W/m2
08:35 73.7 °F 69.6 °F 29.92 in WNW 2 mph 3 mph 87% 0.00 in 209 W/m2
08:40 73.9 °F 69.4 °F 29.92 in WNW 2 mph 2 mph 86% 0.00 in 225 W/m2
08:45 74.1 °F 69.3 °F 29.92 in WSW 2 mph 2 mph 85% 0.00 in 236 W/m2
08:50 74.3 °F 69.5 °F 29.92 in West 2 mph 2 mph 85% 0.00 in 257 W/m2
08:55 74.6 °F 69.4 °F 29.92 in SSE 2 mph 3 mph 84% 0.00 in 267 W/m2
09:00 74.8 °F 69.6 °F 29.92 in South 2 mph 2 mph 84% 0.00 in 278 W/m2
09:05 74.9 °F 69.7 °F 29.92 in SSE 2 mph 2 mph 84% 0.00 in 287 W/m2
09:10 75.1 °F 69.6 °F 29.92 in South 1 mph 3 mph 83% 0.00 in 302 W/m2
09:15 75.2 °F 69.3 °F 29.92 in SW 2 mph 3 mph 82% 0.00 in 315 W/m2
09:20 75.4 °F 69.9 °F 29.92 in West 2 mph 2 mph 83% 0.00 in 327 W/m2
09:25 75.5 °F 69.6 °F 29.92 in ESE 2 mph 2 mph 82% 0.00 in 339 W/m2
09:30 75.7 °F 69.8 °F 29.92 in NE 2 mph 2 mph 82% 0.00 in 353 W/m2
09:35 75.8 °F 69.6 °F 29.92 in WSW 2 mph 2 mph 81% 0.00 in 364 W/m2
09:40 76.1 °F 69.8 °F 29.92 in SSW 2 mph 2 mph 81% 0.00 in 378 W/m2
09:45 76.3 °F 70 °F 29.92 in SSW 2 mph 2 mph 81% 0.00 in 392 W/m2
09:50 76.4 °F 69.8 °F 29.92 in NNW 2 mph 2 mph 80% 0.00 in 406 W/m2
09:55 76.4 °F 69.8 °F 29.92 in West 2 mph 2 mph 80% 0.00 in 417 W/m2
10:00 76.5 °F 70.2 °F 29.92 in SW 2 mph 2 mph 81% 0.00 in 427 W/m2
10:05 76.6 °F 70.3 °F 29.92 in SW 2 mph 2 mph 81% 0.00 in 441 W/m2
10:10 76.7 °F 70.4 °F 29.92 in SE 2 mph 2 mph 81% 0.00 in 454 W/m2
10:15 76.8 °F 70.5 °F 29.92 in South 2 mph 2 mph 81% 0.00 in 466 W/m2
10:20 76.8 °F 70.5 °F 29.92 in WNW 2 mph 2 mph 81% 0.00 in 475 W/m2
10:25 76.9 °F 70.6 °F 29.92 in SSW 2 mph 2 mph 81% 0.00 in 489 W/m2
10:30 77 °F 70.7 °F 29.93 in SW 2 mph 2 mph 81% 0.00 in 501 W/m2
10:35 77 °F 71.1 °F 29.93 in West 2 mph 2 mph 82% 0.00 in 515 W/m2
10:40 77 °F 71.1 °F 29.93 in SSW 2 mph 3 mph 82% 0.00 in 527 W/m2
10:45 77 °F 71.1 °F 29.93 in SSW 2 mph 3 mph 82% 0.00 in 536 W/m2
10:50 77 °F 71.1 °F 29.93 in SSE 2 mph 3 mph 82% 0.00 in 547 W/m2
10:55 77 °F 71.1 °F 29.93 in South 2 mph 3 mph 82% 0.00 in 557 W/m2
11:00 77.1 °F 70.8 °F 29.93 in SW 2 mph 3 mph 81% 0.00 in 570 W/m2
11:05 77.1 °F 70.8 °F 29.94 in SSE 2 mph 3 mph 81% 0.00 in 578 W/m2
11:10 77.2 °F 70.9 °F 29.94 in SE 2 mph 2 mph 81% 0.00 in 589 W/m2
11:15 77.3 °F 71 °F 29.94 in SSW 2 mph 2 mph 81% 0.00 in 598 W/m2
11:20 77.3 °F 71 °F 29.94 in SW 2 mph 4 mph 81% 0.00 in 605 W/m2
11:25 77.4 °F 71.5 °F 29.94 in SE 2 mph 4 mph 82% 0.00 in 613 W/m2
11:30 77.5 °F 71.6 °F 29.94 in SSW 3 mph 4 mph 82% 0.00 in 622 W/m2
11:35 77.5 °F 71.2 °F 29.94 in SSW 3 mph 4 mph 81% 0.00 in 631 W/m2
11:40 77.7 °F 71.4 °F 29.94 in WSW 3 mph 3 mph 81% 0.00 in 640 W/m2
11:45 77.8 °F 71.1 °F 29.94 in SW 3 mph 3 mph 80% 0.00 in 649 W/m2
11:50 77.9 °F 71.2 °F 29.94 in West 3 mph 5 mph 80% 0.00 in 656 W/m2
11:55 78 °F 71.3 °F 29.94 in SSW 3 mph 5 mph 80% 0.00 in 663 W/m2
12:00 78 °F 71 °F 29.94 in SW 3 mph 6 mph 79% 0.00 in 670 W/m2
12:05 78.2 °F 71.2 °F 29.94 in SW 3 mph 6 mph 79% 0.00 in 675 W/m2
12:10 78.3 °F 71.2 °F 29.94 in SSW 2 mph 5 mph 79% 0.00 in 682 W/m2
12:15 78.3 °F 71.2 °F 29.94 in South 2 mph 5 mph 79% 0.00 in 691 W/m2
12:20 78.4 °F 71.3 °F 29.94 in WSW 2 mph 2 mph 79% 0.00 in 696 W/m2
12:25 78.5 °F 71.4 °F 29.94 in SW 3 mph 3 mph 79% 0.00 in 703 W/m2
12:30 78.7 °F 71.6 °F 29.94 in SSE 3 mph 3 mph 79% 0.00 in 707 W/m2
12:35 78.8 °F 71.7 °F 29.94 in South 3 mph 3 mph 79% 0.00 in 710 W/m2
12:40 79.1 °F 72 °F 29.93 in SSW 2 mph 3 mph 79% 0.00 in 717 W/m2
12:45 79.5 °F 71.7 °F 29.93 in SW 2 mph 4 mph 77% 0.00 in 717 W/m2
12:50 79.4 °F 71.9 °F 29.93 in SW 3 mph 3 mph 78% 0.00 in 721 W/m2
12:55 79.9 °F 71.7 °F 29.93 in WNW 3 mph 3 mph 76% 0.00 in 722 W/m2
13:00 80.2 °F 71.6 °F 29.93 in SW 2 mph 3 mph 75% 0.00 in 728 W/m2
13:05 80.5 °F 71.8 °F 29.93 in West 3 mph 3 mph 75% 0.00 in 729 W/m2
13:10 80.2 °F 71.6 °F 29.93 in SW 3 mph 4 mph 75% 0.00 in 735 W/m2
13:15 80.5 °F 71.8 °F 29.93 in West 2 mph 5 mph 75% 0.00 in 737 W/m2
13:20 80.7 °F 72 °F 29.93 in WNW 2 mph 2 mph 75% 0.00 in 738 W/m2
13:25 80.9 °F 72.2 °F 29.93 in East 2 mph 2 mph 75% 0.00 in 740 W/m2
13:30 81.1 °F 72 °F 29.92 in NW 2 mph 3 mph 74% 0.00 in 742 W/m2
13:35 81.3 °F 71.8 °F 29.92 in SW 2 mph 3 mph 73% 0.00 in 744 W/m2
13:40 81.6 °F 72.1 °F 29.92 in WSW 2 mph 2 mph 73% 0.00 in 747 W/m2
13:45 81.7 °F 71.8 °F 29.92 in SE 2 mph 2 mph 72% 0.00 in 745 W/m2
13:50 81.8 °F 71.5 °F 29.92 in SSE 2 mph 2 mph 71% 0.00 in 745 W/m2
13:55 81.8 °F 71.9 °F 29.92 in WSW 2 mph 2 mph 72% 0.00 in 745 W/m2
14:00 81.8 °F 71.5 °F 29.91 in SW 2 mph 2 mph 71% 0.00 in 744 W/m2
14:05 81.8 °F 72.3 °F 29.91 in NNW 2 mph 2 mph 73% 0.00 in 740 W/m2
14:10 82.3 °F 71.1 °F 29.91 in SSW 2 mph 4 mph 69% 0.00 in 737 W/m2
14:15 82.6 °F 71.8 °F 29.91 in WNW 3 mph 4 mph 70% 0.00 in 735 W/m2
14:20 82.7 °F 71.1 °F 29.91 in West 2 mph 2 mph 68% 0.00 in 735 W/m2
14:25 82.9 °F 72.1 °F 29.91 in SW 2 mph 4 mph 70% 0.00 in 731 W/m2
14:30 82.8 °F 71.2 °F 29.92 in NW 2 mph 2 mph 68% 0.00 in 729 W/m2
14:35 82.7 °F 71.1 °F 29.92 in West 2 mph 5 mph 68% 0.00 in 728 W/m2
14:40 83.1 °F 71 °F 29.91 in SW 2 mph 2 mph 67% 0.00 in 724 W/m2
14:45 83 °F 71.3 °F 29.91 in WNW 2 mph 2 mph 68% 0.00 in 719 W/m2
14:50 83.2 °F 71.5 °F 29.91 in SW 3 mph 3 mph 68% 0.00 in 717 W/m2
14:55 83.7 °F 71.6 °F 29.91 in West 3 mph 3 mph 67% 0.00 in 677 W/m2
15:00 83.9 °F 71.8 °F 29.91 in West 2 mph 3 mph 67% 0.00 in 696 W/m2
15:05 84.2 °F 72 °F 29.91 in WNW 3 mph 3 mph 67% 0.00 in 694 W/m2
15:10 84.3 °F 72.1 °F 29.92 in SW 3 mph 6 mph 67% 0.00 in 689 W/m2
15:15 84.2 °F 72 °F 29.91 in South 2 mph 6 mph 67% 0.00 in 677 W/m2
15:20 84.2 °F 72 °F 29.92 in South 2 mph 2 mph 67% 0.00 in 670 W/m2
15:25 84.2 °F 72 °F 29.92 in SE 3 mph 3 mph 67% 0.00 in 664 W/m2
15:30 84.1 °F 72 °F 29.92 in SSW 3 mph 7 mph 67% 0.00 in 633 W/m2
15:35 84.3 °F 72.1 °F 29.91 in SW 3 mph 7 mph 67% 0.00 in 624 W/m2
15:40 84.9 °F 72.3 °F 29.91 in South 3 mph 4 mph 66% 0.00 in 624 W/m2
15:45 84.9 °F 72.7 °F 29.91 in SSW 2 mph 4 mph 67% 0.00 in 617 W/m2
15:50 85.1 °F 72.9 °F 29.91 in SE 2 mph 2 mph 67% 0.00 in 628 W/m2
15:55 85.8 °F 73.1 °F 29.91 in NNW 2 mph 2 mph 66% 0.00 in 608 W/m2
16:00 86.3 °F 73.1 °F 29.91 in NE 2 mph 2 mph 65% 0.00 in 598 W/m2
16:05 86.2 °F 73 °F 29.91 in ENE 2 mph 2 mph 65% 0.00 in 598 W/m2
16:10 86.1 °F 73 °F 29.91 in North 2 mph 2 mph 65% 0.00 in 585 W/m2
16:15 86.4 °F 73.2 °F 29.91 in East 2 mph 2 mph 65% 0.00 in 584 W/m2
16:20 86.6 °F 73.9 °F 29.91 in NNW 1 mph 3 mph 66% 0.00 in 566 W/m2
16:25 86.2 °F 74 °F 29.91 in NW 1 mph 3 mph 67% 0.00 in 545 W/m2
16:30 86.2 °F 74 °F 29.91 in NW 2 mph 3 mph 67% 0.00 in 540 W/m2
16:35 86.3 °F 74 °F 29.91 in NNE 3 mph 3 mph 67% 0.00 in 531 W/m2
16:40 85.9 °F 74.1 °F 29.90 in South 2 mph 2 mph 68% 0.00 in 526 W/m2
16:45 85.5 °F 74.2 °F 29.90 in ESE 1 mph 2 mph 69% 0.00 in 520 W/m2
16:50 85.6 °F 74.3 °F 29.90 in NE 1 mph 2 mph 69% 0.00 in 508 W/m2
16:55 85.9 °F 73.2 °F 29.90 in SSE 1 mph 2 mph 66% 0.00 in 443 W/m2
17:00 85.2 °F 74.3 °F 29.90 in East 1 mph 1 mph 70% 0.00 in 482 W/m2
17:05 85.3 °F 73.5 °F 29.89 in NE 1 mph 1 mph 68% 0.00 in 445 W/m2
17:10 85.3 °F 72.6 °F 29.89 in South 1 mph 2 mph 66% 0.00 in 367 W/m2
17:15 85.1 °F 72.9 °F 29.89 in SE 1 mph 2 mph 67% 0.00 in 290 W/m2
17:20 84.8 °F 73.1 °F 29.88 in SE 1 mph 1 mph 68% 0.00 in 297 W/m2
17:25 84.6 °F 72.9 °F 29.88 in ESE 1 mph 2 mph 68% 0.00 in 308 W/m2
17:30 84.8 °F 74.8 °F 29.88 in ESE 1 mph 1 mph 72% 0.00 in 265 W/m2
17:35 85 °F 75.4 °F 29.88 in SE 1 mph 1 mph 73% 0.00 in 278 W/m2
17:40 85 °F 75 °F 29.88 in SSE 1 mph 1 mph 72% 0.00 in 243 W/m2
17:45 85 °F 74.5 °F 29.88 in ESE 1 mph 1 mph 71% 0.00 in 218 W/m2
17:50 85 °F 74.5 °F 29.88 in SE 1 mph 1 mph 71% 0.00 in 250 W/m2
17:55 85 °F 74.1 °F 29.89 in ESE 1 mph 1 mph 70% 0.00 in 287 W/m2
18:00 85 °F 74.1 °F 29.89 in East 1 mph 1 mph 70% 0.00 in 362 W/m2
18:05 85.1 °F 74.2 °F 29.89 in SE 1 mph 1 mph 70% 0.00 in 267 W/m2
18:10 85.1 °F 74.2 °F 29.90 in SE 1 mph 1 mph 70% 0.00 in 227 W/m2
18:15 85.1 °F 73.8 °F 29.90 in East 1 mph 1 mph 69% 0.00 in 165 W/m2
18:20 85 °F 73.7 °F 29.90 in Calm   1 mph 69% 0.00 in 144 W/m2
18:25 84.9 °F 73.6 °F 29.91 in Calm   1 mph 69% 0.00 in 98 W/m2
18:30 85 °F 74.1 °F 29.91 in SE 1 mph 1 mph 70% 0.00 in 81 W/m2
18:35 84.9 °F 73.6 °F 29.91 in East 1 mph 1 mph 69% 0.00 in 65 W/m2
18:40 84.9 °F 74 °F 29.91 in Calm     70% 0.00 in 60 W/m2
18:45 84.8 °F 74.3 °F 29.91 in Calm   1 mph 71% 0.00 in 51 W/m2
18:50 84.7 °F 74.3 °F 29.92 in Calm     71% 0.00 in 46 W/m2
18:55 84.6 °F 75 °F 29.91 in Calm   1 mph 73% 0.00 in 49 W/m2
19:00 84.5 °F 74.5 °F 29.91 in Calm     72% 0.00 in 47 W/m2
19:05 84.4 °F 74.4 °F 29.91 in Calm     72% 0.00 in 44 W/m2
19:10 84.3 °F 74.7 °F 29.92 in Calm   1 mph 73% 0.00 in 40 W/m2
19:15 84.2 °F 75.4 °F 29.92 in Calm   1 mph 75% 0.00 in 33 W/m2
19:20 84.1 °F 75.7 °F 29.92 in Calm   1 mph 76% 0.00 in 30 W/m2
19:25 83.9 °F 75.9 °F 29.93 in ESE 1 mph 1 mph 77% 0.00 in 26 W/m2
19:30 83.7 °F 76.5 °F 29.93 in SSW 1 mph 1 mph 79% 0.00 in 25 W/m2
19:35 83.5 °F 76.7 °F 29.96 in WSW 2 mph 6 mph 80% 0.00 in 5 W/m2
19:40 81.8 °F 69.8 °F 29.97 in WSW 6 mph 7 mph 67% 0.00 in 5 W/m2
19:45 80.8 °F 68.8 °F 29.96 in West 9 mph 9 mph 67% 0.00 in 5 W/m2
19:50 80.1 °F 69 °F 29.95 in NE 8 mph 8 mph 69% 0.00 in 5 W/m2
19:55 79.7 °F 69.5 °F 29.94 in WSW 7 mph 8 mph 71% 0.00 in 5 W/m2
20:00 79.2 °F 69.8 °F 29.94 in South 6 mph 6 mph 73% 0.00 in 0 W/m2
20:05 78.7 °F 70.5 °F 29.94 in WNW 6 mph 6 mph 76% 0.00 in 0 W/m2
20:10 78.2 °F 70.4 °F 29.93 in West 6 mph 6 mph 77% 0.00 in 0 W/m2
20:15 77.6 °F 70.6 °F 29.93 in NW 6 mph 6 mph 79% 0.00 in 0 W/m2
20:20 77.2 °F 70.5 °F 29.93 in WSW 6 mph 9 mph 80% 0.00 in 0 W/m2
20:25 76.6 °F 70.3 °F 29.94 in WNW 6 mph 9 mph 81% 0.00 in 0 W/m2
20:30 76.3 °F 70.8 °F 29.94 in WNW 6 mph 8 mph 83% 0.00 in 0 W/m2
20:35 76.1 °F 70.6 °F 29.94 in NW 5 mph 9 mph 83% 0.00 in 0 W/m2
20:40 75.7 °F 70.2 °F 29.94 in WSW 5 mph 5 mph 83% 0.00 in 0 W/m2
20:45 75.5 °F 70.3 °F 29.93 in WNW 4 mph 5 mph 84% 0.00 in 0 W/m2
20:50 75.3 °F 70.1 °F 29.92 in NNW 4 mph 4 mph 84% 0.00 in 0 W/m2
20:55 75.1 °F 69.9 °F 29.92 in WNW 3 mph 4 mph 84% 0.00 in 0 W/m2
21:00 75 °F 69.8 °F 29.91 in WNW 3 mph 3 mph 84% 0.00 in 0 W/m2
21:05 74.9 °F 69.7 °F 29.91 in South 3 mph 3 mph 84% 0.00 in 0 W/m2
21:10 74.8 °F 69.6 °F 29.90 in SSW 2 mph 2 mph 84% 0.00 in 0 W/m2
21:15 74.8 °F 69.6 °F 29.89 in South 1 mph 2 mph 84% 0.00 in 0 W/m2
21:20 74.7 °F 69.9 °F 29.87 in Calm     85% 0.00 in 0 W/m2
21:25 74.7 °F 69.9 °F 29.86 in Calm   1 mph 85% 0.00 in 0 W/m2
21:30 74.8 °F 70.3 °F 29.86 in North 1 mph 1 mph 86% 0.00 in 0 W/m2
21:35 75.2 °F 70.7 °F 29.87 in SW 1 mph 1 mph 86% 0.00 in 0 W/m2
21:40 75.2 °F 70.7 °F 29.88 in NW 1 mph 1 mph 86% 0.00 in 0 W/m2
21:45 75.4 °F 70.6 °F 29.89 in SSE 1 mph 1 mph 85% 0.00 in 0 W/m2
21:50 75.6 °F 70.8 °F 29.89 in SSW 1 mph 2 mph 85% 0.00 in 0 W/m2
21:55 76.3 °F 71.5 °F 29.89 in East 1 mph 2 mph 85% 0.00 in 0 W/m2
22:00 76.4 °F 71.2 °F 29.88 in NE 1 mph 1 mph 84% 0.00 in 0 W/m2
22:05 76.5 °F 71.3 °F 29.89 in North 1 mph 1 mph 84% 0.00 in 0 W/m2
22:10 76.5 °F 71.3 °F 29.89 in East 1 mph 1 mph 84% 0.00 in 0 W/m2
22:15 76.7 °F 71.8 °F 29.89 in NE 1 mph 1 mph 85% 0.00 in 0 W/m2
22:20 76.6 °F 71.7 °F 29.89 in East 1 mph 1 mph 85% 0.00 in 0 W/m2
22:25 76.6 °F 71.7 °F 29.89 in NE 1 mph 1 mph 85% 0.00 in 0 W/m2
22:30 76.5 °F 71.7 °F 29.88 in NE 1 mph 1 mph 85% 0.00 in 0 W/m2
22:35 76.4 °F 71.2 °F 29.88 in NE 1 mph 1 mph 84% 0.00 in 0 W/m2
22:40 76.4 °F 71.6 °F 29.89 in NE 1 mph 1 mph 85% 0.00 in 0 W/m2
22:45 76.5 °F 72 °F 29.89 in ENE 1 mph 1 mph 86% 0.00 in 0 W/m2
22:50 76.3 °F 71.8 °F 29.89 in NNW 2 mph 2 mph 86% 0.00 in 0 W/m2
22:55 76.1 °F 71.9 °F 29.89 in NE 1 mph 2 mph 87% 0.00 in 0 W/m2
23:00 76 °F 71.8 °F 29.89 in NE 1 mph 1 mph 87% 0.00 in 0 W/m2
23:05 75.9 °F 71.8 °F 29.89 in NE 1 mph 1 mph 87% 0.00 in 0 W/m2
23:10 75.9 °F 71.8 °F 29.89 in ENE 1 mph 2 mph 87% 0.00 in 0 W/m2
23:15 76 °F 71.8 °F 29.89 in NNW 1 mph 2 mph 87% 0.00 in 0 W/m2
Sand Point, Michigan, USA
Compliments of Weather Underground - 2 mb